{"data":{"norad_id":67257,"intl_designator":"2025-313K","name":"SITRO-AIS-59","alt_names":[],"object_type":"PAYLOAD","status":"ACTIVE","operator":null,"country":"CIS","launch_date":"2025-12-28","launch_site_code":"VOSTO","launch_vehicle":null,"mission":null,"orbit_class":"UNKNOWN","rcs_meters":null,"size_class":null,"mass_kg":null,"dimensions":null,"purposes":[],"wikipedia_slug":null,"has_3d_model":false,"image_url":null,"decayed_at":null,"tle_current":{"epoch":"2026-09-19T23:24:18.480096Z","epoch_age_seconds":148478,"freshness":"FRESH","line1":"1 67257U 25313K   26262.97521389  .00005526  00000+0  22726-3 0  9992","line2":"2 67257  97.3852 336.1813 0015622  36.5999 323.6302 15.24451223 40388","mean_motion":15.24451223,"eccentricity":0.0015622,"inclination_deg":97.3852,"raan_deg":336.1813,"arg_perigee_deg":36.5999,"mean_anomaly_deg":323.6302,"bstar":0.00022726,"rev_number":4038,"period_min":94.46022137502,"perigee_km":481.70059413233,"apogee_km":503.16700553933,"semimajor_km":6870.5707998358,"source":"CELESTRAK","updated_at":"2026-09-21T09:00:16.513082Z"}}}